Temp
17 17 17 18 19 20 21 21 22 22 22 23 24 24 24 25 26 27 28 31 29 27 27 24 25 25 26 27 28 27 29 31 31 30 31 31 30 30 31 30 30 29 28 26 22
17 17 17 18 19 20 21 21 22 22 23 23 23 24 24 24 24 23 30 31 31 29 26 26 27 27 28 28 28 28 30 31 31 32 32 31 31 30 30 30 28 25 25 23 23
17 17 18 19 19 20 21 21 22 22 23 23 24 24 24 24 25 31 30 30 30 28 27 26 26 28 29 28 29 29 31 31 33 33 33 31 30 31 30 29 29 26 25 25 24
17 18 18 19 20 20 21 21 22 23 23 23 24 24 24 23 32 30 30 29 27 27 27 27 28 29 30 31 30 30 31 31 32 33 32 31 31 31 30 31 31 28 27 25 25
18 18 18 19 20 21 21 22 23 23 24 24 24 24 23 26 29 29 29 28 26 26 28 29 30 30 32 32 31 30 32 32 32 33 33 32 31 31 30 30 30 28 27 26 27
17 18 18 19 21 21 22 23 24 24 25 25 24 23 23 28 28 28 27 25 25 27 28 29 31 31 31 32 32 33 33 33 32 33 32 32 31 31 29 29 28 27 27 28 28
17 18 18 19 20 21 22 24 24 25 25 25 24 23 24 29 27 27 26 25 27 27 31 29 30 32 32 33 32 33 32 32 32 32 31 32 30 31 29 29 28 28 28 28 28
16 17 18 19 21 22 23 24 25 25 26 25 23 22 27 27 26 26 27 28 27 26 27 29 29 31 32 33 33 32 33 33 32 32 31 30 31 29 29 29 28 28 28 27 28
15 17 18 19 21 22 23 23 23 24 24 23 22 23 28 26 26 29 28 30 28 26 26 29 30 32 32 33 34 33 33 33 33 32 31 31 31 30 29 30 29 28 28 28 28
15 16 18 20 21 22 22 22 22 22 21 21 20 24 28 30 29 29 29 29 31 30 29 30 31 32 32 34 33 32 33 33 32 32 31 31 31 30 29 29 30 29 29 29 29
15 16 18 20 21 23 23 21 24 24 22 26 27 26 27 28 28 29 29 30 32 33 33 31 32 33 34 33 33 32 32 33 34 31 32 31 30 30 30 30 29 30 30 29 29
15 16 18 19 21 23 22 24 22 21 23 23 23 23 24 26 29 30 30 33 32 32 31 32 33 33 33 32 32 32 32 34 33 31 31 30 30 31 30 30 30 30 30 30 31
15 16 18 19 21 22 20 21 20 19 22 25 25 25 26 27 29 30 31 31 32 31 32 33 34 32 33 33 33 34 33 33 32 30 30 31 32 29 30 30 30 31 31 31 31
15 16 17 19 20 18 20 20 20 19 26 29 28 28 27 27 30 30 31 33 31 32 31 32 33 32 33 33 34 34 32 31 31 32 32 29 32 30 29 29 29 30 31 31 31
15 16 17 17 17 18 21 21 20 20 29 30 29 28 27 29 31 31 29 32 32 31 31 33 31 32 34 34 33 33 30 30 30 31 31 30 31 33 28 29 30 30 31 31 31
15 16 16 16 15 21 21 21 21 27 28 29 29 29 29 30 31 30 31 31 31 31 30 32 31 32 34 33 33 31 32 31 30 32 33 29 31 35 32 32 32 32 31 31 30
16 18 16 15 19 20 21 22 26 27 27 28 29 28 28 30 31 31 31 31 32 31 31 32 33 33 32 33 31 32 34 33 33 32 32 27 29 34 33 33 34 33 32 32 31
18 18 17 18 18 19 20 26 26 26 26 27 27 27 29 30 30 30 31 31 29 30 30 31 32 32 33 34 34 33 35 34 32 32 33 27 32 36 33 32 32 32 32 32 31
18 17 17 17 18 18 24 26 25 25 26 26 28 29 30 30 30 30 31 32 33 31 32 30 31 31 31 33 35 32 33 33 33 28 31 33 33 35 32 32 33 32 31 31 31
15 15 17 17 18 19 25 22 24 23 25 26 26 27 28 29 30 31 30 30 31 30 31 32 31 31 32 33 31 34 32 33 31 32 32 33 32 35 35 34 32 32 33 33 32
14 22 18 18 19 24 25 23 23 25 24 26 26 27 27 28 29 30 30 31 31 29 29 31 32 33 32 33 34 32 33 30 32 32 34 33 35 35 34 33 33 34 34 34 33
13 23 19 19 24 19 24 22 22 25 25 26 26 26 27 28 29 30 31 31 30 30 30 31 32 32 33 33 31 33 34 34 34 31 30 32 35 35 32 32 31 33 34 34 33
15 16 19 19 24 23 22 24 24 25 25 26 26 26 26 28 28 29 30 31 30 30 30 29 31 32 33 32 30 32 31 31 31 31 31 34 36 34 31 31 30 30 31 31 31
15 22 21 20 18 22 22 23 24 25 24 25 26 26 26 27 28 29 30 31 30 29 24 29 29 32 33 33 32 32 32 31 33 34 32 34 35 36 33 29 28 29 30 31 30
15 17 16 21 21 20 21 21 23 24 24 24 26 25 25 27 28 29 29 30 30 26 28 30 31 28 29 30 31 31 31 31 32 32 34 33 32 34 29 28 27 28 29 31 31
16 16 16 17 16 20 18 21 22 22 22 24 24 24 25 26 25 25 26 28 29 30 29 28 29 29 30 29 30 30 29 30 29 28 29 29 31 29 28 28 28 29 29 31 32
11 12 15 15 18 19 20 20 21 21 23 23 22 23 25 24 23 23 25 26 26 27 29 29 30 30 30 28 29 31 30 30 28 28 29 32 32 28 28 28 28 28 29 29 31
Height
810 808 805 802 799 796 793 789 787 784 782 779 775 772 769 765 762 759 757 757 758 760 764 767 770 770 770 768 767 767 779 781 776 778 772 763 769 764 764 772 773 775 779 786 798
810 807 804 801 798 794 791 788 785 782 780 777 774 771 768 764 760 756 754 754 756 758 762 765 768 769 768 767 767 775 780 773 762 760 763 761 763 767 771 774 781 784 785 792 798
810 806 803 800 796 793 789 786 783 780 778 775 773 770 768 764 762 751 750 752 755 759 761 765 766 767 768 767 767 768 775 763 755 752 752 760 764 761 771 780 775 783 786 791 796
809 806 802 798 795 791 787 783 780 777 774 773 772 769 766 765 771 750 748 751 755 759 762 765 766 769 770 772 764 774 761 759 754 750 753 761 759 766 767 767 765 775 780 788 792
808 805 801 796 793 788 784 780 776 773 771 769 769 768 766 766 757 751 749 752 756 759 762 764 766 767 769 767 765 768 757 752 749 749 750 754 761 763 767 762 766 776 783 786 789
807 803 799 794 789 785 780 776 772 769 767 766 767 767 768 770 753 752 752 754 757 759 761 763 762 761 763 764 764 755 753 752 751 749 749 757 762 759 767 765 770 776 781 783 786
805 801 796 791 786 781 776 771 767 764 762 762 764 766 766 758 752 752 754 755 756 758 759 761 763 764 761 762 755 753 765 758 757 754 761 756 773 768 763 767 773 776 780 784 785
804 799 794 789 784 778 772 767 763 760 759 761 763 765 761 754 754 754 754 755 756 759 760 761 762 762 763 755 756 764 761 776 761 757 761 765 779 770 766 766 773 776 778 783 785
801 797 792 787 781 775 769 765 763 761 761 762 764 765 760 755 754 751 753 754 755 758 761 762 762 764 763 770 771 769 782 775 768 757 762 766 775 766 765 766 770 774 774 778 782
799 794 789 784 779 773 768 765 764 764 764 764 765 768 752 751 749 749 751 753 753 757 763 765 766 770 772 770 793 788 782 773 775 764 763 771 771 765 764 767 766 769 772 774 777
797 791 786 782 777 772 768 766 767 766 765 758 757 757 751 748 748 748 748 751 751 754 767 764 773 777 768 768 771 776 778 776 761 760 763 769 770 765 763 764 767 766 769 772 772
795 790 784 780 775 772 769 769 775 779 770 756 755 756 752 751 752 746 747 751 756 766 765 770 773 763 763 767 771 774 777 770 761 762 765 769 768 756 757 756 754 760 764 765 767
794 788 783 778 773 772 772 773 774 774 774 755 751 750 747 750 751 746 745 748 758 768 767 769 760 758 762 769 771 766 774 770 775 768 767 767 761 764 755 752 753 754 755 758 760
793 788 782 776 776 773 773 773 771 771 774 756 751 745 746 746 749 739 740 743 756 763 767 765 755 762 765 769 765 775 765 768 773 774 785 775 785 765 759 757 755 751 752 752 755
790 786 781 779 777 775 773 771 769 771 787 751 750 743 744 748 742 741 740 741 755 759 763 764 763 763 766 765 760 771 766 769 772 777 780 784 787 757 762 758 750 746 744 746 747
787 783 778 776 774 771 769 768 770 781 789 759 748 751 750 745 743 740 742 741 746 758 761 759 754 754 753 756 756 759 766 769 773 772 786 793 788 755 756 744 737 736 737 738 741
782 778 774 773 771 769 768 767 783 787 763 767 761 755 757 752 747 744 750 755 761 777 774 763 758 751 751 763 761 762 767 789 792 793 795 794 795 757 738 731 727 729 730 731 734
777 771 769 769 768 768 768 771 793 780 774 762 760 758 759 750 752 752 753 759 759 761 776 776 778 755 744 750 757 762 761 780 808 800 786 795 779 742 729 724 722 723 724 725 728
772 769 768 767 765 767 768 782 784 782 772 770 759 760 757 752 751 754 754 752 747 752 769 777 774 747 746 742 743 768 773 758 776 796 793 771 753 729 727 725 721 721 722 722 723
771 769 770 767 767 768 770 789 782 777 770 769 776 767 769 759 756 753 759 747 748 746 742 755 773 752 745 742 750 748 751 772 776 797 798 773 772 752 729 725 723 722 718 716 717
771 768 772 770 769 767 779 783 779 767 769 770 771 770 766 766 759 757 755 746 740 748 746 750 757 757 749 750 751 760 761 769 764 773 779 783 760 724 729 724 721 714 713 712 713
775 771 774 771 773 787 780 782 776 768 765 766 765 765 766 761 758 756 753 746 737 739 752 745 750 761 752 740 744 743 748 747 762 781 778 773 755 716 723 727 726 719 713 709 710
782 782 775 773 779 782 781 777 774 770 767 767 765 764 762 761 766 754 748 734 734 738 746 747 756 766 756 750 749 748 749 752 753 758 774 768 751 718 725 727 727 725 720 718 717
785 778 777 778 786 783 784 781 777 768 770 767 765 760 764 761 755 757 749 736 733 736 744 739 753 751 757 749 742 751 748 749 743 755 764 754 741 721 722 731 732 727 721 715 714
790 794 797 788 785 787 786 785 781 779 770 767 765 767 770 766 760 758 749 741 734 742 742 739 752 758 753 749 744 745 746 750 750 747 750 749 750 729 737 736 730 722 718 713 711
795 797 795 795 795 789 793 788 785 782 780 773 776 769 763 767 771 771 762 751 748 738 740 740 754 753 755 751 747 748 749 747 752 755 754 752 746 736 734 730 726 718 712 707 706
803 802 800 801 793 792 791 790 786 785 775 773 776 772 765 766 766 760 756 752 753 753 744 743 745 752 762 761 755 758 747 746 751 750 746 749 735 734 733 731 727 722 714 709 701
Wind_Speed
18 19 20 20 19 18 18 19 19 19 19 20 20 20 20 23 23 17 7 5 9 18 14 16 6 3 1 1 1 0 2 2 1 3 4 11 5 5 8 12 3 1 8 17 25
19 20 20 21 20 20 20 19 19 20 20 19 19 19 19 22 19 10 5 8 9 22 14 13 5 1 0 1 1 0 1 2 1 1 2 12 7 11 5 14 6 13 19 28 26
20 21 22 22 22 21 21 20 20 20 20 18 18 16 16 17 4 1 7 8 14 23 10 8 7 1 1 1 2 3 2 3 2 3 4 6 11 6 10 11 9 18 20 23 24
20 22 23 23 23 23 23 22 21 21 19 17 16 14 15 6 1 4 5 12 20 17 14 8 4 1 2 2 2 3 6 6 5 1 3 5 12 8 11 2 11 22 25 22 21
21 22 24 25 25 25 25 24 23 22 19 17 13 9 4 3 5 8 12 18 23 15 10 6 2 1 5 3 2 4 3 2 2 2 3 12 7 4 8 5 18 21 22 22 20
22 24 26 26 26 27 27 27 24 20 17 15 9 4 0 4 5 1 14 19 12 11 8 6 2 3 7 2 4 3 6 3 1 7 9 10 6 7 5 15 19 23 21 21 20
23 25 27 28 29 28 31 25 20 19 15 11 5 1 2 9 2 8 14 11 11 11 4 7 2 4 8 9 3 4 1 3 3 4 3 9 4 6 14 16 19 19 18 18 18
24 26 29 29 29 32 27 22 16 9 5 5 5 2 5 2 9 14 8 5 13 11 7 10 1 4 4 7 4 3 2 4 2 4 4 3 1 4 14 17 17 17 17 16 17
26 27 29 29 29 32 21 12 8 6 5 7 3 1 4 4 5 13 17 7 7 8 6 8 1 2 2 4 2 3 7 10 4 4 4 6 1 8 14 13 15 16 17 17 16
28 29 30 29 28 24 20 3 5 5 6 4 2 2 5 3 2 5 8 11 3 7 3 4 3 4 3 2 4 9 9 6 7 2 5 4 6 12 15 15 15 16 16 17 17
29 30 30 29 29 15 15 3 2 2 1 5 0 3 5 8 5 4 5 9 4 4 6 5 6 10 5 2 2 5 8 12 10 2 3 3 5 12 14 16 16 16 16 17 18
29 30 31 28 26 10 6 4 6 3 7 6 10 10 9 3 4 3 8 8 6 11 3 6 14 7 4 5 3 4 9 12 4 2 3 3 10 12 18 21 21 20 18 18 18
28 31 30 30 15 8 4 9 4 2 3 4 4 3 3 10 5 5 10 6 5 8 8 14 6 5 3 3 5 6 7 10 9 1 3 8 7 4 11 15 16 18 19 19 20
28 29 30 31 3 13 2 2 16 10 3 1 1 0 4 3 5 6 8 4 4 13 6 8 5 7 3 5 4 8 6 9 2 2 4 6 6 4 5 11 15 18 18 20 21
28 28 29 24 14 4 2 14 4 3 1 8 2 2 3 4 1 2 2 2 7 6 6 5 4 9 12 8 4 2 2 5 4 3 2 1 4 4 1 8 14 17 19 17 18
28 30 28 9 9 7 10 13 4 2 2 2 2 1 2 3 1 3 4 3 2 4 1 6 1 2 3 4 2 9 2 3 2 2 4 3 4 5 3 4 7 15 18 19 18
31 28 20 10 2 6 13 1 2 3 3 4 3 5 3 3 4 4 8 9 7 6 9 4 10 4 4 7 3 5 3 3 2 1 4 2 4 10 7 7 5 10 12 18 18
31 22 8 7 9 5 4 2 3 2 3 3 4 3 1 3 1 2 7 11 3 3 3 8 7 10 9 14 7 8 5 4 4 3 5 1 5 6 2 1 8 7 7 10 17
25 8 3 10 7 6 1 1 2 0 3 8 8 2 3 2 2 4 7 10 11 11 6 5 5 2 5 3 8 6 6 2 2 2 3 3 6 10 4 8 11 8 7 8 12
14 5 8 8 10 1 2 1 1 3 4 1 3 4 4 4 2 2 4 3 4 12 5 5 4 0 2 4 5 4 10 4 1 3 7 4 5 7 6 3 4 6 8 9 11
4 2 8 3 7 3 2 0 3 5 5 2 1 2 2 3 3 1 3 2 2 2 8 7 5 3 2 5 8 4 4 2 2 2 4 4 4 4 4 5 9 9 8 9 11
4 2 5 11 2 1 2 1 3 4 0 4 2 4 3 3 2 1 1 2 1 5 6 7 3 9 13 1 1 0 3 6 4 6 2 3 7 2 2 4 7 10 8 8 8
2 2 4 3 2 2 1 3 3 3 4 2 3 4 0 3 2 2 2 1 3 2 5 8 5 4 4 3 3 5 5 3 4 2 5 4 5 5 7 8 7 6 8 9 11
1 1 2 3 2 2 2 2 5 3 2 5 4 2 5 5 4 2 2 1 4 2 2 7 3 4 7 1 1 6 7 6 3 4 6 5 7 13 13 13 11 8 7 7 9
3 3 2 2 3 2 1 3 4 5 2 6 1 9 5 2 1 2 2 5 1 3 2 2 1 2 2 4 4 5 7 8 6 2 4 2 5 9 11 15 13 14 7 6 9
2 2 2 1 2 2 2 2 3 4 3 4 7 14 7 3 3 4 7 2 2 2 1 1 2 2 2 4 2 5 5 7 4 2 4 5 10 4 13 10 10 10 10 8 8
4 1 2 3 2 1 1 2 1 7 2 5 10 8 6 3 10 14 10 11 7 5 3 2 2 1 2 3 5 4 6 6 4 3 3 4 4 13 13 10 6 10 9 9 11
Wind_Direction
17 12 7 1 354 347 341 337 333 332 332 330 331 329 325 322 321 309 267 208 179 177 167 148 119 93 334 275 239 110 311 359 43 180 118 150 133 145 99 140 117 161 142 138 150
11 6 2 357 353 346 340 335 331 329 329 327 327 327 326 324 323 282 249 204 184 177 157 161 168 171 358 298 161 320 316 338 229 182 155 168 145 148 141 152 109 85 112 136 151
6 1 358 355 350 345 338 333 326 325 324 323 324 324 326 326 296 260 334 187 171 171 148 129 123 148 298 264 190 171 272 290 312 232 162 127 137 144 149 190 175 149 142 150 159
359 356 354 350 346 342 337 329 323 321 318 315 320 322 324 333 172 360 293 158 164 166 131 134 128 181 281 312 215 282 271 262 315 49 173 163 147 153 170 161 166 158 153 157 165
354 352 350 346 345 341 336 329 323 315 310 306 312 319 343 301 260 342 139 157 161 154 154 158 166 264 302 355 193 244 271 200 218 230 204 143 164 145 188 118 144 152 158 165 174
350 348 345 345 343 340 334 327 317 307 299 292 292 302 356 271 307 264 156 158 172 173 169 170 195 248 291 309 283 260 289 298 209 155 153 162 152 149 135 132 143 158 168 173 178
346 345 343 342 342 339 334 327 317 306 291 268 239 181 211 253 312 163 164 175 192 194 205 217 215 280 336 316 300 278 264 285 68 136 85 133 170 178 149 147 153 166 173 184 189
346 344 342 341 340 338 337 329 320 317 288 195 176 134 259 146 146 150 164 227 222 225 253 304 272 290 252 308 309 20 200 348 107 168 108 180 239 130 164 155 162 175 175 192 196
348 344 340 340 341 340 342 344 21 51 94 128 114 181 256 172 221 233 230 225 207 226 250 284 60 245 248 268 360 29 324 321 332 196 135 206 257 168 175 184 169 182 188 190 203
348 344 340 341 342 342 348 49 55 71 85 89 84 272 241 170 249 178 200 201 169 129 158 184 209 228 189 312 317 313 317 309 290 134 168 194 242 176 186 191 193 187 195 199 203
348 344 342 340 341 345 355 316 316 174 161 234 56 287 304 315 281 186 178 168 150 190 202 183 213 223 235 213 295 280 281 293 300 151 188 240 237 189 195 202 201 206 197 203 211
347 344 341 341 339 348 13 75 89 322 303 244 259 262 264 331 318 209 164 171 180 216 164 203 233 200 146 157 261 257 291 313 324 19 258 290 277 226 197 209 205 198 205 210 212
345 343 340 340 338 8 54 128 338 260 253 292 210 221 220 185 227 227 182 159 163 194 197 223 240 160 209 185 271 283 293 320 312 29 98 320 280 194 217 225 218 217 209 209 213
341 341 338 339 353 342 277 218 330 174 316 305 153 187 143 194 214 203 193 164 162 204 175 246 198 205 196 258 228 290 336 310 336 271 327 356 305 277 226 219 222 215 213 213 213
339 336 332 333 298 284 312 325 337 180 172 351 84 130 132 214 29 134 161 118 180 166 193 209 198 197 221 246 193 344 34 68 84 98 281 132 274 271 282 245 222 213 215 217 217
334 332 327 326 291 272 316 334 153 256 232 47 83 43 176 215 120 112 161 69 75 137 241 248 316 240 198 171 238 170 124 68 83 353 291 67 284 299 221 238 217 215 217 215 211
330 328 310 282 247 301 325 262 210 229 346 18 352 337 275 209 202 163 169 179 188 204 227 249 244 220 183 233 129 183 197 294 261 193 271 115 244 266 259 250 218 186 214 212 208
330 328 316 275 274 314 331 173 217 25 339 343 324 306 216 169 153 147 170 189 192 153 144 212 234 196 184 215 216 197 229 233 268 264 310 316 248 311 252 284 228 235 239 206 206
336 344 47 330 308 182 171 158 22 213 323 330 315 19 69 124 195 177 197 200 212 194 222 180 248 222 209 155 197 158 206 349 217 118 267 271 272 281 252 251 243 238 205 192 197
339 349 9 48 94 127 81 104 247 236 307 310 349 3 344 352 218 170 183 153 219 203 224 198 265 344 88 169 69 232 139 177 193 260 272 237 275 272 298 223 206 222 211 192 183
5 95 3 47 358 50 65 35 275 242 242 256 273 291 302 307 321 132 153 181 258 88 200 173 229 190 236 199 180 153 184 75 150 252 279 295 273 224 283 247 209 216 206 202 204
347 83 340 347 65 36 74 294 321 309 237 274 276 252 249 298 281 234 181 230 182 165 173 194 203 240 248 161 346 213 220 200 222 188 236 307 274 168 43 355 314 283 259 227 222
47 325 357 343 82 59 359 303 271 318 324 324 280 228 213 278 296 252 247 133 47 171 174 173 211 226 219 170 146 208 183 177 111 139 187 237 277 112 76 54 21 322 306 268 272
359 97 47 61 43 25 360 355 324 316 288 310 298 345 321 257 226 291 283 273 342 5 58 151 157 233 248 256 140 169 171 176 204 199 158 234 295 299 349 359 355 327 300 280 247
10 56 17 39 68 19 317 346 327 358 360 2 119 357 292 298 262 235 296 303 127 97 74 241 213 216 298 256 192 142 163 173 208 163 235 55 262 327 343 332 322 307 275 247 226
44 11 6 29 306 301 354 48 352 338 307 13 6 337 355 61 27 303 357 334 360 329 204 181 151 161 55 9 290 138 129 141 153 160 263 294 285 60 331 318 318 320 305 281 197
25 36 301 26 354 282 86 360 10 348 227 280 339 325 314 360 313 283 258 278 277 309 326 324 134 140 150 3 328 189 189 178 148 197 190 252 305 332 332 334 345 335 334 308 289